GW3565 Weather Reports


time (UTC)temp
F
wind
direction
speed
knots
gust
knots
rain 1hr
in
rain 24hr
in
rain mn
in
humidity
%
barometer
mb
20260906203031 83 175 0.0 2.6 0.00 0.01 0.00 80 1014.4
20260906201526 82 112 0.0 1.7 0.00 0.01 0.00 81 1014.6
20260906200013 82 110 0.0 1.7 0.00 0.01 0.00 81 1014.5
20260906194514 82 155 0.9 6.1 0.00 0.01 0.00 80 1014.4
20260906193011 81 104 0.9 2.6 0.00 0.01 0.00 83 1013.9
20260906191532 81 113 0.9 2.6 0.00 0.01 0.00 83 1014.3
20260906190034 80 107 0.9 3.5 0.00 0.01 0.00 83 1014.3
20260906184518 80 118 1.7 3.5 0.00 0.01 0.00 85 1014.6
20260906183033 79 128 0.0 1.7 0.00 0.01 0.00 85 1015.0
20260906181523 78 113 0.0 3.5 0.00 0.01 0.00 85 1015.2
20260906180010 78 122 0.0 5.2 0.00 0.01 0.00 86 1015.3
20260906174516 77 147 0.9 3.5 0.00 0.01 0.00 85 1015.3
20260906173010 76 138 0.9 5.2 0.00 0.01 0.00 87 1015.5
20260906171528 76 129 0.0 6.1 0.00 0.01 0.00 86 1015.7
20260906170033 75 128 0.0 2.6 0.00 0.01 0.00 87 1015.9
20260906164511 75 127 1.7 6.1 0.00 0.01 0.00 88 1016.1
20260906163017 74 135 1.7 6.1 0.00 0.19 0.00 87 1016.0
20260906161523 74 116 0.0 3.5 0.00 0.44 0.00 88 1016.2
20260906160016 74 107 0.9 5.2 0.00 0.47 0.00 87 1016.2
20260906154513 74 188 0.9 5.2 0.00 0.82 0.00 88 1016.3
20260906153012 73 101 0.9 3.5 0.00 0.89 0.00 88 1016.3
20260906151518 73 138 0.9 6.1 0.00 0.89 0.00 89 1016.2
20260906150037 73 105 1.7 3.5 0.00 0.89 0.00 89 1016.3
20260906144529 72 119 0.9 5.2 0.00 0.89 0.00 89 1016.4
20260906143019 72 114 0.9 3.5 0.00 0.89 0.00 91 1016.7
20260906141516 71 82 1.7 6.1 0.00 0.89 0.00 91 1016.7
20260906140025 70 94 1.7 3.5 0.00 0.89 0.00 92 1016.8
20260906134540 70 119 0.9 3.5 0.00 0.89 0.00 92 1016.9
20260906133049 69 111 0.9 2.6 0.00 0.89 0.00 92 1016.8
20260906131531 69 120 0.9 3.5 0.00 0.89 0.00 92 1016.7
20260906130020 68 105 0.0 2.6 0.00 0.89 0.00 92 1016.7
20260906124521 68 127 0.0 2.6 0.00 0.89 0.00 92 1016.6
20260906123031 68 102 0.9 3.5 0.00 0.89 0.00 92 1016.5
20260906121532 68 111 0.9 2.6 0.00 0.89 0.00 92 1016.4
20260906120009 68 121 0.9 2.6 0.00 0.89 0.00 92 1016.3
20260906114510 68 118 1.7 3.5 0.00 0.89 0.00 92 1016.2
20260906113003 68 123 1.7 2.6 0.00 0.89 0.00 92 1016.3
20260906111508 68 123 0.9 3.5 0.00 0.89 0.00 93 1016.3
20260906110013 67 113 1.7 5.2 0.00 0.89 0.00 93 1016.4
20260906104522 67 123 0.9 6.1 0.00 0.89 0.00 94 1016.3
20260906103015 67 103 1.7 2.6 0.00 0.89 0.00 94 1016.2
20260906101504 66 123 0.9 2.6 0.00 0.89 0.00 94 1016.1
20260906100008 66 108 0.9 2.6 0.00 0.89 0.00 93 1016.5
20260906094504 66 108 0.9 1.7 0.00 0.89 0.00 92 1016.4
20260906093016 66 108 0.0 0.9 0.00 0.89 0.00 92 1016.3
20260906091519 66 108 0.9 1.7 0.00 0.89 0.00 92 1016.2
20260906090008 66 46 0.0 0.9 0.00 0.89 0.00 91 1016.2
20260906084512 67 46 0.0 0.9 0.00 0.89 0.00 90 1016.2
20260906083011 67 46 0.0 1.7 0.00 0.89 0.00 90 1016.2
20260906081507 67 46 0.0 0.9 0.00 0.89 0.00 90 1016.2
20260906080025 68 46 0.9 2.6 0.00 0.89 0.00 90 1016.2
20260906074508 68 61 0.0 1.7 0.00 0.89 0.00 90 1016.1
20260906073021 68 110 0.0 2.6 0.00 0.89 0.00 89 1016.1
20260906071521 69 72 0.0 1.7 0.00 0.89 0.00 89 1016.1
20260906070016 69 111 0.0 1.7 0.00 0.89 0.00 89 1016.3
20260906064508 69 111 0.0 1.7 0.00 0.89 0.00 89 1016.3
20260906063013 69 111 0.0 1.7 0.00 0.89 0.00 90 1016.4
20260906061523 69 122 0.9 2.6 0.00 0.89 0.00 90 1016.3
20260906060028 69 113 0.0 3.5 0.00 0.89 0.00 90 1016.2
20260906054527 69 109 1.7 3.5 0.00 0.89 0.00 90 1015.9
20260906053024 69 120 2.6 5.2 0.00 0.89 0.00 90 1015.7
20260906051516 69 110 2.6 5.2 0.00 0.89 0.00 90 1015.8
20260906050012 69 75 0.0 1.7 0.00 0.89 0.00 89 1016.0
20260906044531 70 111 0.9 2.6 0.00 0.89 0.89 89 1016.1
20260906043006 70 108 1.7 2.6 0.00 0.89 0.89 88 1016.2
20260906041506 71 78 0.0 2.6 0.00 0.89 0.89 87 1016.1
20260906040004 71 70 0.0 1.7 0.00 0.89 0.89 88 1016.2
20260906034508 71 106 1.7 3.5 0.00 0.89 0.89 87 1016.2
20260906033003 72 94 0.9 3.5 0.00 0.89 0.89 87 1016.3
20260906031508 72 117 0.9 2.6 0.00 0.89 0.89 87 1016.3
20260906030010 72 115 1.7 3.5 0.01 0.89 0.89 86 1016.5
20260906024506 73 51 0.9 2.6 0.01 0.89 0.89 86 1016.5
20260906023012 73 211 0.0 2.6 0.01 0.89 0.89 86 1016.1
20260906021505 74 86 1.7 3.5 0.01 0.89 0.89 86 1015.5
20260906020012 74 80 1.7 2.6 0.00 0.88 0.88 86 1015.6
20260906014521 74 13 0.0 0.9 0.00 0.88 0.88 84 1016.1
20260906013017 75 133 0.9 1.7 0.00 0.88 0.88 82 1015.6
20260906011506 75 94 0.0 0.9 0.00 0.88 0.88 81 1015.3
20260906010006 76 139 0.0 0.0 0.00 0.88 0.88 79 1015.2
20260906004509 77 139 0.0 0.9 0.00 0.88 0.88 77 1015.1
20260906003018 78 139 0.0 0.9 0.00 0.88 0.88 77 1014.9
20260906001526 78 139 0.0 0.0 0.00 0.88 0.88 75 1014.3
20260906000008 79 139 0.0 0.9 0.00 0.88 0.88 72 1013.6
20260905234511 79 139 0.0 1.7 0.00 0.88 0.88 70 1013.2
20260905233015 80 119 0.0 3.5 0.00 0.88 0.88 70 1013.5
20260905231508 80 157 0.9 5.2 0.00 0.88 0.88 70 1013.7
20260905230004 80 129 0.9 2.6 0.00 0.88 0.88 70 1013.5
20260905224511 81 117 0.9 2.6 0.00 0.88 0.88 71 1013.5
20260905223015 81 182 2.6 7.0 0.00 0.88 0.88 70 1013.5
20260905221531 80 146 1.7 7.0 0.00 0.88 0.88 70 1013.4
20260905220017 81 112 1.7 5.2 0.00 0.88 0.88 71 1013.5
20260905214508 81 132 1.7 7.0 0.00 0.88 0.88 68 1013.5
20260905213010 82 173 2.6 6.1 0.00 0.88 0.88 70 1013.6
20260905211527 81 116 1.7 7.0 0.00 0.88 0.88 69 1013.8
20260905210024 81 107 1.7 7.0 0.00 0.88 0.88 71 1013.8
20260905204528 81 110 2.6 7.8 0.00 0.88 0.88 68 1014.0